Wildfire 5

operational
NORAD ID: 57769 Int'l Des: 2023-133 Owner: SDA Country: US
LEOCIRCULARPOLAR

About Wildfire 5

Description loading...

Live Position

Loading 3D Globe...

Upcoming Passes

Altitude History

Altitude vs Time

uPlot chart will show altitude changes over time

Two-Line Element Set

1 57769U 23133N 26050.14092950 .00000123 00000-0 97954-4 0 9993
2 57769 81.0035 121.1107 0005229 337.0713 23.0209 13.85444528124689
Epoch: Feb 19, 2026 • Age: 6 hours

Current Status

Altitude 957.2 km
Velocity 7.38 km/s
Sub-Earth Point 70.58°N, 135.87°W
Launch Date Sep 2, 2023
Age 2.4 years
Type other

Technical Details

Classification Payload
Mass 300.00 kg
Dry Mass 300.00 kg
Total Mass 300.00 kg
Length 1.00 m
Diameter 0.40 m
Span 2.50 m
Shape Box + 2 panels
Manufacturer TYVAK/LMSSD
Bus Type Mavericks
Phase Status In Orbit
Owner/State SDA/US

Large Constellations

Loading constellations...